Content
SEND FEEDBACK

Daily
Averages
Monthly
Summary
United States of America

MERIZO, GUAM


Home > North America > United States > Guam
Elevation: 10 feet     Latitude: 13 14N     Longitude: 144 39E

WEATHER
 
SELECT A DAY
Number of Records: 351,844;   Date Range: 1/1/95 - 10/23/14
 
SHARE

PRINT THIS DATA

[ ← Previous Day ]
WEATHER ALMANAC - FEBRUARY 27, 2013
[ Next Day → ]
[ °C ]   °F
Weather ElementAverageHighLow
Temperature78.1 °F84.7 °F (1:55 pm)73.4 °F (12:17 am)
Dewpoint73.2 °F75.2 °F (12:34 pm)69.8 °F (12:17 am)
Humidity85.2 %94 % (1:29 am)68 % (1:55 pm)
Barometer29.82 in29.86 in (12:17 am)29.77 in (3:25 pm)
Wind Speed16.9 mph25.3 mph (12:35 am)
Wind Gust32.2 mph (12:35 am)
Weather ElementAverage
Visibility9.1 mi
Wind DirectionENE (67.7 °)

Weather ElementTotal
Precipitation---
Cooling Degree Days14.1 (Base 65)
Growing Degree Days29.1 (Base 50)
Averaged from 105 records on February 27, 2013
WEATHER CONDITIONS BREAKOUT
WIND DIRECTION BREAKOUT
WEATHER BY HOUR - FEBRUARY 27, 2013
[ °C ]   °F
Local TimeTemperatureDewpointHumidityBarometerVisibilityWind DirectionWind SpeedGust SpeedPrecipitationEventsConditions
12:17 AM73.4 °F69.8 °F88 %29.86 in10.0 miENE (70°)17.3 mphMostly Cloudy
12:31 AM75.2 °F71.6 °F89 %29.85 in10.0 miENE (70°)13.8 mphMostly Cloudy
12:35 AM75.2 °F71.6 °F89 %29.86 in5.0 miENE (70°)25.3 mph32.2 mphRainLight Rain
12:37 AM75.2 °F71.6 °F89 %29.86 in4.0 miENE (60°)19.6 mph32.2 mphRainLight Rain
12:38 AM75.2 °F71.6 °F89 %29.85 in4.0 miENE (70°)17.3 mph32.2 mphRainHeavy Rain
12:40 AM75.2 °F69.8 °F83 %29.85 in4.0 miEast (80°)17.3 mph32.2 mphRainHeavy Rain
12:50 AM75.2 °F71.6 °F89 %29.85 in10.0 miENE (70°)13.8 mphMostly Cloudy
12:55 AM75.0 °F72.0 °F90 %29.85 in10.0 miENE (70°)16.1 mph0.00 inMostly Cloudy
1:29 AM75.2 °F73.4 °F94 %29.83 in10.0 miENE (70°)15.0 mph23.0 mphMostly Cloudy
1:55 AM76.3 °F70.9 °F83 %29.83 in10.0 miENE (70°)18.4 mph28.8 mphMostly Cloudy
2:00 AM75.2 °F71.6 °F89 %29.83 in10.0 miENE (70°)20.7 mph28.8 mphScattered Clouds
2:02 AM75.2 °F71.6 °F89 %29.83 in10.0 miENE (70°)19.6 mph28.8 mphMostly Cloudy
2:04 AM75.2 °F71.6 °F89 %29.83 in10.0 miENE (70°)23.0 mphScattered Clouds
2:18 AM75.2 °F71.6 °F89 %29.82 in10.0 miENE (70°)19.6 mphMostly Cloudy
2:42 AM77.0 °F71.6 °F83 %29.82 in10.0 miENE (60°)17.3 mphScattered Clouds
2:55 AM76.5 °F70.0 °F80 %29.81 in10.0 miENE (60°)23.0 mph29.9 mphScattered Clouds
3:55 AM75.7 °F70.0 °F82 %29.80 in10.0 miENE (70°)17.3 mphPartly Cloudy
4:55 AM76.3 °F70.3 °F82 %29.80 in10.0 miENE (60°)18.4 mphScattered Clouds
5:13 AM77.0 °F69.8 °F78 %29.80 in10.0 miENE (60°)19.6 mphMostly Cloudy
5:41 AM77.0 °F69.8 °F78 %29.81 in10.0 miENE (70°)19.6 mph26.5 mphMostly Cloudy
5:55 AM76.5 °F70.0 °F80 %29.81 in10.0 miEast (80°)17.3 mph26.5 mphScattered Clouds
6:10 AM77.0 °F69.8 °F78 %29.81 in10.0 miENE (70°)18.4 mphMostly Cloudy
6:26 AM77.0 °F69.8 °F78 %29.82 in10.0 miEast (80°)21.9 mph27.6 mphScattered Clouds
6:27 AM77.0 °F69.8 °F78 %29.82 in10.0 miEast (80°)23.0 mph27.6 mphMostly Cloudy
6:33 AM77.0 °F69.8 °F78 %29.82 in10.0 miEast (80°)19.6 mphScattered Clouds
6:47 AM77.0 °F69.8 °F78 %29.83 in10.0 miENE (70°)20.7 mphMostly Cloudy
6:54 AM77.0 °F69.8 °F78 %29.83 in10.0 miEast (80°)19.6 mphMostly Cloudy
6:55 AM77.2 °F70.3 °F79 %29.83 in10.0 miEast (80°)19.6 mphMostly Cloudy
6:56 AM77.0 °F69.8 °F78 %29.83 in10.0 miEast (80°)18.4 mphMostly Cloudy
6:58 AM77.0 °F71.6 °F83 %29.83 in10.0 miENE (60°)16.1 mphMostly Cloudy
6:59 AM77.0 °F71.6 °F83 %29.83 in10.0 miENE (60°)19.6 mphMostly Cloudy
7:26 AM77.0 °F71.6 °F83 %29.83 in10.0 miENE (70°)20.7 mph27.6 mphRainLight Rain
7:36 AM77.0 °F71.6 °F83 %29.84 in10.0 miEast (80°)16.1 mphMostly Cloudy
7:55 AM78.3 °F71.6 °F80 %29.85 in10.0 miEast (80°)12.7 mph0.00 inMostly Cloudy
8:52 AM78.8 °F71.6 °F78 %29.86 in10.0 miENE (60°)16.1 mph24.2 mphMostly Cloudy
8:55 AM78.8 °F72.5 °F81 %29.86 in10.0 miENE (60°)13.8 mph24.2 mphMostly Cloudy
9:19 AM80.6 °F71.6 °F74 %29.86 in10.0 miENE (70°)19.6 mphScattered Clouds
9:55 AM81.3 °F73.2 °F76 %29.86 in10.0 miENE (70°)18.4 mph25.3 mphMostly Cloudy
10:10 AM80.6 °F71.6 °F74 %29.86 in10.0 miENE (70°)15.0 mphMostly Cloudy
10:34 AM82.4 °F73.4 °F74 %29.86 in10.0 miENE (70°)18.4 mphMostly Cloudy
10:55 AM82.8 °F73.8 °F74 %29.85 in10.0 miENE (60°)18.4 mphMostly Cloudy
11:14 AM82.4 °F73.4 °F74 %29.84 in10.0 miENE (60°)16.1 mph23.0 mphMostly Cloudy
11:55 AM82.2 °F73.9 °F76 %29.83 in10.0 miENE (60°)17.3 mph23.0 mphScattered Clouds
12:02 PM82.4 °F73.4 °F74 %29.83 in10.0 miENE (60°)21.9 mph26.5 mphMostly Cloudy
12:05 PM82.4 °F73.4 °F74 %29.83 in10.0 miENE (60°)19.6 mph26.5 mphMostly Cloudy
12:34 PM84.2 °F75.2 °F74 %29.82 in10.0 miENE (70°)15.0 mph23.0 mphMostly Cloudy
12:38 PM82.4 °F73.4 °F74 %29.82 in10.0 miENE (60°)21.9 mph26.5 mphMostly Cloudy
12:40 PM82.4 °F73.4 °F74 %29.82 in10.0 miENE (60°)19.6 mph26.5 mphMostly Cloudy
12:55 PM82.2 °F73.0 °F74 %29.81 in10.0 miENE (60°)19.6 mphOvercast
1:27 PM82.4 °F73.4 °F74 %29.81 in10.0 miEast (80°)19.6 mphScattered Clouds
1:55 PM84.7 °F73.2 °F68 %29.80 in10.0 miENE (70°)17.3 mph24.2 mphClear
2:28 PM84.2 °F75.2 °F74 %29.79 in8.0 miENE (60°)21.9 mph25.3 mphRainLight Rain
2:30 PM82.4 °F75.2 °F79 %29.79 in6.0 miENE (60°)18.4 mph25.3 mphRainLight Rain
2:32 PM80.6 °F75.2 °F84 %29.79 in6.0 miENE (60°)16.1 mph25.3 mphRainLight Rain
2:39 PM80.6 °F75.2 °F84 %29.78 in9.0 miENE (70°)16.1 mphScattered Clouds
2:55 PM81.9 °F74.5 °F78 %29.78 in10.0 miENE (60°)16.1 mph0.00 inScattered Clouds
3:08 PM82.4 °F75.2 °F79 %29.78 in6.0 miEast (80°)17.3 mphRainRain
3:10 PM80.6 °F75.2 °F84 %29.78 in5.0 miENE (70°)16.1 mphRainRain
3:12 PM80.6 °F75.2 °F84 %29.78 in4.0 miENE (70°)16.1 mphRainRain
3:13 PM78.8 °F75.2 °F89 %29.78 in4.0 miENE (60°)15.0 mphRainRain
3:25 PM78.8 °F75.2 °F89 %29.77 in10.0 miENE (60°)13.8 mphMostly Cloudy
3:34 PM78.8 °F75.2 °F89 %29.77 in10.0 miENE (60°)17.3 mphMostly Cloudy
3:37 PM78.8 °F73.4 °F83 %29.77 in10.0 miENE (60°)18.4 mphMostly Cloudy
3:55 PM79.2 °F73.6 °F83 %29.77 in10.0 miENE (60°)18.4 mph0.00 inScattered Clouds
3:58 PM78.8 °F73.4 °F83 %29.77 in10.0 miENE (60°)16.1 mphMostly Cloudy
4:04 PM78.8 °F73.4 °F83 %29.77 in10.0 miENE (60°)18.4 mphScattered Clouds
4:55 PM79.5 °F73.6 °F82 %29.78 in10.0 miENE (60°)16.1 mphPartly Cloudy
5:04 PM78.8 °F73.4 °F83 %29.78 in10.0 miENE (60°)17.3 mphMostly Cloudy
5:32 PM78.8 °F75.2 °F89 %29.78 in6.0 miENE (70°)23.0 mph29.9 mphRainLight Rain
5:34 PM78.8 °F75.2 °F89 %29.78 in2.5 miENE (60°)18.4 mph29.9 mphRainLight Rain
5:40 PM77.0 °F73.4 °F89 %29.78 in2.5 miENE (60°)18.4 mph29.9 mphRainLight Rain
5:43 PM77.0 °F73.4 °F89 %29.78 in4.0 miNE (50°)15.0 mphRainLight Rain
5:45 PM77.0 °F73.4 °F89 %29.78 in8.0 miNE (50°)15.0 mphMostly Cloudy
5:55 PM76.8 °F74.3 °F92 %29.79 in10.0 miNE (50°)17.3 mph0.00 inMostly Cloudy
6:36 PM77.0 °F75.2 °F94 %29.79 in10.0 miENE (60°)17.3 mphMostly Cloudy
6:38 PM77.0 °F73.4 °F89 %29.79 in10.0 miENE (60°)15.0 mphMostly Cloudy
6:39 PM77.0 °F73.4 °F89 %29.79 in10.0 miENE (60°)16.1 mphMostly Cloudy
6:42 PM77.0 °F75.2 °F94 %29.79 in10.0 miENE (60°)15.0 mphMostly Cloudy
6:55 PM77.5 °F74.8 °F91 %29.80 in10.0 miENE (60°)13.8 mphOvercast
7:55 PM77.4 °F74.1 °F90 %29.81 in10.0 miENE (70°)12.7 mphMostly Cloudy
8:22 PM77.0 °F75.2 °F94 %29.82 in10.0 miENE (60°)16.1 mphMostly Cloudy
8:25 PM77.0 °F75.2 °F94 %29.82 in10.0 miENE (60°)13.8 mphMostly Cloudy
8:26 PM77.0 °F75.2 °F94 %29.82 in9.0 miENE (60°)13.8 mphMostly Cloudy
8:28 PM77.0 °F75.2 °F94 %29.82 in5.0 miENE (70°)16.1 mphRainLight Rain
8:29 PM77.0 °F75.2 °F94 %29.82 in5.0 miENE (70°)15.0 mphRainLight Rain
8:35 PM75.2 °F73.4 °F94 %29.83 in5.0 miENE (70°)13.8 mphRainLight Rain
8:40 PM75.2 °F73.4 °F94 %29.83 in10.0 miENE (70°)12.7 mphMostly Cloudy
8:55 PM75.6 °F73.4 °F93 %29.83 in10.0 miEast (80°)12.7 mph0.00 inScattered Clouds
9:38 PM77.0 °F75.2 °F94 %29.83 in10.0 miEast (80°)15.0 mphMostly Cloudy
9:41 PM77.0 °F75.2 °F94 %29.83 in10.0 miEast (80°)16.1 mph21.9 mphMostly Cloudy
9:55 PM77.2 °F74.5 °F91 %29.83 in10.0 miENE (70°)15.0 mph21.9 mphMostly Cloudy
9:56 PM77.0 °F75.2 °F94 %29.83 in10.0 miEast (80°)13.8 mphMostly Cloudy
9:58 PM77.0 °F75.2 °F94 %29.83 in10.0 miEast (80°)12.7 mphMostly Cloudy
9:59 PM77.0 °F75.2 °F94 %29.83 in10.0 miENE (70°)13.8 mphMostly Cloudy
10:24 PM77.0 °F75.2 °F94 %29.83 in10.0 miENE (70°)10.4 mphOvercast
10:41 PM77.0 °F75.2 °F94 %29.83 in10.0 miENE (70°)15.0 mphOvercast
10:55 PM77.2 °F74.8 °F92 %29.83 in10.0 miENE (70°)13.8 mphOvercast
11:20 PM77.0 °F75.2 °F94 %29.83 in10.0 miENE (70°)15.0 mphMostly Cloudy
11:26 PM77.0 °F75.2 °F94 %29.83 in10.0 miEast (80°)13.8 mphMostly Cloudy
11:29 PM77.0 °F75.2 °F94 %29.83 in10.0 miENE (70°)13.8 mphMostly Cloudy
11:31 PM77.0 °F75.2 °F94 %29.83 in10.0 miEast (80°)12.7 mphMostly Cloudy
11:45 PM77.0 °F75.2 °F94 %29.83 in10.0 miEast (80°)12.7 mphMostly Cloudy
11:55 PM77.4 °F74.8 °F92 %29.83 in10.0 miEast (80°)13.8 mphMostly Cloudy
11:56 PM77.0 °F75.2 °F94 %29.83 in10.0 miEast (80°)13.8 mphMostly Cloudy
11:59 PM77.0 °F75.2 °F94 %29.83 in10.0 miENE (70°)13.8 mphMostly Cloudy
Hourly data recorded from PGUA, located miles away from Merizo, Guam







STORIES FROM OUR PARTNERS